SIA352 WSSS-EKCH

Flight info

Callsign SIA352
Flight time N/A
Altitude 38000
Route VMR9B VMR B469 VPK M751 VKB M626 BGO L507 CEA R460 LKN M890 SULOM A466 DI N644 LEMOD A909 NINOP B475 DOLOS B449 MAMED P130 BODKA M747 SULEL N449 INDUR UN161 ERZ UL746 ODERO DCT LUGEB DCT IDARU DCT MOBRA DCT ELROM DCT NARKA DCT KELEL DCT VIZAN DCT LARMA DCT ROE M743 TIDVU
Aircraft A359/H-SDE2E3GHIJ3J4J5LM1ORWXY/LB1D1

Departure

Time 2026-05-04 07:12
Airport Singapore Changi Airport (WSSS)

Arrival

Time N/A
Airport Copenhagen Kastrup Airport (EKCH)
Time Latitude Longitude Altitude Speed Heading
2026-05-04 06:44 1.36036 103.98732 31 ft 0 kts 111°
2026-05-04 06:51 1.36036 103.98731 31 ft 0 kts 111°
2026-05-04 06:57 1.36039 103.98725 31 ft 4 kts 112°
2026-05-04 06:58 1.36050 103.98701 31 ft 4 kts 121°
2026-05-04 06:58 1.36065 103.98678 28 ft 4 kts 123°
2026-05-04 06:58 1.36077 103.98655 29 ft 4 kts 94°
2026-05-04 06:58 1.36075 103.98634 28 ft 4 kts 58°
2026-05-04 06:59 1.36057 103.98616 29 ft 4 kts 35°
2026-05-04 06:59 1.36047 103.98609 28 ft 1 kts 37°
2026-05-04 07:04 1.36074 103.98630 31 ft 10 kts 34°
2026-05-04 07:04 1.36164 103.98671 31 ft 19 kts 22°
2026-05-04 07:05 1.36312 103.98732 31 ft 24 kts 22°
2026-05-04 07:05 1.36456 103.98793 31 ft 22 kts 23°
2026-05-04 07:05 1.36602 103.98801 31 ft 21 kts 354°
2026-05-04 07:05 1.36739 103.98813 31 ft 19 kts 23°
2026-05-04 07:06 1.36763 103.98955 31 ft 11 kts 115°
2026-05-04 07:06 1.36734 103.99023 31 ft 11 kts 113°
2026-05-04 07:06 1.36702 103.99096 31 ft 15 kts 112°
2026-05-04 07:07 1.36649 103.99223 31 ft 25 kts 113°
2026-05-04 07:08 1.36131 103.99871 32 ft 0 kts 202°
2026-05-04 07:09 1.36119 103.99866 32 ft 10 kts 202°
2026-05-04 07:10 1.35885 103.99768 34 ft 67 kts 202°
2026-05-04 07:10 1.35273 103.99511 36 ft 122 kts 203°
2026-05-04 07:12 1.27910 103.96412 1970 ft 205 kts 203°
2026-05-04 07:12 1.26543 103.95839 2134 ft 223 kts 202°
2026-05-04 07:12 1.25042 103.95223 2370 ft 239 kts 201°
2026-05-04 07:12 1.23372 103.94928 2582 ft 256 kts 175°
2026-05-04 07:13 1.21699 103.95563 2967 ft 263 kts 143°
2026-05-04 07:13 1.20278 103.96742 3427 ft 268 kts 138°
2026-05-04 07:13 1.18877 103.97999 3944 ft 271 kts 138°
2026-05-04 07:14 1.16782 104.04526 5921 ft 279 kts 55°
2026-05-04 07:14 1.17947 104.06084 6428 ft 281 kts 50°
2026-05-04 07:15 1.19183 104.07605 6931 ft 283 kts 49°
2026-05-04 07:15 1.20604 104.08972 7430 ft 284 kts 33°
2026-05-04 07:15 1.22301 104.10004 7958 ft 286 kts 28°
2026-05-04 07:15 1.24034 104.10961 8470 ft 289 kts 27°
2026-05-04 07:16 1.25830 104.11907 9034 ft 291 kts 22°
2026-05-04 07:16 1.27799 104.12378 9531 ft 293 kts 359°
2026-05-04 07:16 1.29781 104.11968 10021 ft 294 kts 333°
2026-05-04 07:16 1.31477 104.10835 10323 ft 304 kts 320°
2026-05-04 07:17 1.33141 104.09408 10543 ft 318 kts 318°
2026-05-04 07:17 1.34821 104.07943 10753 ft 330 kts 319°
2026-05-04 07:17 1.36592 104.06415 10987 ft 342 kts 319°
2026-05-04 07:17 1.38431 104.04843 11181 ft 354 kts 319°
2026-05-04 07:18 1.40341 104.03232 11432 ft 365 kts 321°
2026-05-04 07:18 1.42540 104.01897 11629 ft 375 kts 338°
2026-05-04 07:18 1.45032 104.01017 11832 ft 384 kts 342°
2026-05-04 07:18 1.47611 104.00199 12022 ft 392 kts 342°
2026-05-04 07:19 1.50232 103.99368 12284 ft 398 kts 342°
2026-05-04 07:19 1.52877 103.98522 12611 ft 401 kts 342°
2026-05-04 07:19 1.55511 103.97675 12938 ft 404 kts 342°
2026-05-04 07:19 1.58199 103.96808 13273 ft 406 kts 342°
2026-05-04 07:20 1.60900 103.95936 13626 ft 409 kts 342°
2026-05-04 07:20 1.63612 103.95059 13989 ft 408 kts 342°
2026-05-04 07:20 1.66292 103.94191 14696 ft 398 kts 342°
2026-05-04 07:20 1.68866 103.93356 15387 ft 389 kts 343°
2026-05-04 07:22 1.87247 103.90417 18337 ft 390 kts 358°
2026-05-04 07:22 1.89935 103.90249 18616 ft 392 kts 358°
2026-05-04 07:23 1.92672 103.90077 18931 ft 394 kts 358°
2026-05-04 07:23 1.95420 103.89902 19233 ft 396 kts 358°
2026-05-04 07:23 1.98180 103.89727 19562 ft 398 kts 358°
2026-05-04 07:23 2.00918 103.89553 19867 ft 400 kts 358°
2026-05-04 07:24 2.03704 103.89376 20178 ft 401 kts 358°
2026-05-04 07:24 2.06502 103.89198 20501 ft 403 kts 358°
2026-05-04 07:24 2.09320 103.89018 20828 ft 405 kts 358°
2026-05-04 07:24 2.12152 103.88838 21145 ft 407 kts 358°
2026-05-04 07:25 2.15001 103.88656 21339 ft 413 kts 358°
2026-05-04 07:26 2.36053 103.87302 22209 ft 453 kts 356°
2026-05-04 07:27 2.39189 103.86754 22325 ft 460 kts 345°
2026-05-04 07:27 2.42231 103.85683 22443 ft 466 kts 339°
2026-05-04 07:27 2.45226 103.84401 22564 ft 471 kts 336°
2026-05-04 07:27 2.48190 103.83026 22731 ft 474 kts 335°
2026-05-04 07:28 2.51173 103.81605 22944 ft 475 kts 335°
2026-05-04 07:28 2.54165 103.80180 23162 ft 477 kts 335°
2026-05-04 07:28 2.57182 103.78760 23392 ft 479 kts 335°
2026-05-04 07:28 2.60217 103.77348 23578 ft 480 kts 336°
2026-05-04 07:29 2.63259 103.75946 23785 ft 482 kts 336°
2026-05-04 07:29 2.66274 103.74565 23974 ft 483 kts 336°
2026-05-04 07:29 2.69339 103.73163 24158 ft 485 kts 336°
2026-05-04 07:29 2.72416 103.71759 24350 ft 486 kts 336°
2026-05-04 07:30 2.75506 103.70358 24544 ft 488 kts 336°
2026-05-04 07:30 2.78605 103.68969 24748 ft 489 kts 336°
2026-05-04 07:30 2.81718 103.67580 24955 ft 491 kts 336°
2026-05-04 07:30 2.84846 103.66185 25164 ft 492 kts 336°
2026-05-04 07:31 2.87980 103.64787 25372 ft 494 kts 336°
2026-05-04 07:31 2.91090 103.63401 25599 ft 495 kts 337°
2026-05-04 07:33 3.13424 103.53460 27234 ft 508 kts 336°
2026-05-04 07:33 3.16663 103.52020 27475 ft 510 kts 336°
2026-05-04 07:33 3.19918 103.50568 27718 ft 512 kts 336°
2026-05-04 07:33 3.23180 103.49101 27950 ft 514 kts 336°
2026-05-04 07:34 3.26439 103.47630 28230 ft 515 kts 336°
2026-05-04 07:34 3.29709 103.46153 28441 ft 517 kts 336°
2026-05-04 07:34 3.32956 103.44687 28661 ft 518 kts 336°
2026-05-04 07:34 3.36255 103.43201 28903 ft 519 kts 336°
2026-05-04 07:35 3.39560 103.41714 29114 ft 521 kts 336°
2026-05-04 07:35 3.42899 103.40295 29376 ft 521 kts 338°
2026-05-04 07:35 3.46279 103.38951 29703 ft 520 kts 339°
2026-05-04 07:35 3.49612 103.37661 30027 ft 518 kts 339°
2026-05-04 07:36 3.52977 103.36364 30283 ft 517 kts 339°
2026-05-04 07:36 3.56336 103.35059 30500 ft 517 kts 339°
2026-05-04 07:38 3.79433 103.25904 32472 ft 504 kts 338°
2026-05-04 07:38 3.82705 103.24602 32696 ft 503 kts 338°
2026-05-04 07:38 3.85964 103.23306 32938 ft 502 kts 338°
2026-05-04 07:38 3.88112 103.22451 33094 ft 501 kts 338°
2026-05-04 07:39 3.91363 103.21158 33307 ft 501 kts 338°
2026-05-04 07:39 3.95650 103.19453 33656 ft 498 kts 338°
2026-05-04 07:39 3.97827 103.18587 33840 ft 496 kts 338°
2026-05-04 07:39 4.00996 103.17327 34001 ft 496 kts 338°
2026-05-04 07:40 4.04213 103.16047 34114 ft 497 kts 338°
2026-05-04 07:40 4.07434 103.14765 34259 ft 496 kts 338°
2026-05-04 07:40 4.10613 103.13500 34442 ft 495 kts 338°
2026-05-04 07:40 4.13825 103.12221 34525 ft 497 kts 339°
2026-05-04 07:41 4.20278 103.09653 34714 ft 498 kts 339°
2026-05-04 07:41 4.23504 103.08370 34887 ft 497 kts 339°
2026-05-04 07:41 4.26716 103.07091 35037 ft 497 kts 339°
2026-05-04 07:42 4.29926 103.05813 35177 ft 496 kts 338°
2026-05-04 07:42 4.33139 103.04534 35301 ft 496 kts 339°
2026-05-04 07:42 4.36310 103.03272 35433 ft 496 kts 339°
2026-05-04 07:42 4.39527 103.01991 35574 ft 495 kts 339°
2026-05-04 07:43 4.42723 103.00719 35693 ft 495 kts 339°
2026-05-04 07:43 4.45927 102.99443 35801 ft 495 kts 339°
2026-05-04 07:43 4.49126 102.98170 36015 ft 492 kts 339°
2026-05-04 07:43 4.52299 102.96906 36261 ft 489 kts 339°
2026-05-04 07:44 4.58602 102.94395 36372 ft 491 kts 338°
2026-05-04 07:44 4.61785 102.93127 36488 ft 490 kts 339°
2026-05-04 07:44 4.64951 102.91866 36616 ft 489 kts 339°
2026-05-04 07:45 4.68107 102.90608 36717 ft 489 kts 339°
2026-05-04 07:45 4.71240 102.89360 36776 ft 489 kts 338°
2026-05-04 07:45 4.77597 102.86826 36961 ft 488 kts 339°
2026-05-04 07:46 4.80718 102.85582 37076 ft 488 kts 338°
2026-05-04 07:46 4.83869 102.84326 37138 ft 488 kts 338°
2026-05-04 07:46 4.90198 102.81810 37306 ft 487 kts 338°
2026-05-04 07:47 4.93349 102.80558 37452 ft 486 kts 338°
2026-05-04 07:47 4.96492 102.79308 37480 ft 486 kts 338°
2026-05-04 07:49 5.21705 102.69281 37771 ft 489 kts 338°
2026-05-04 07:49 5.28036 102.66739 37860 ft 487 kts 338°
2026-05-04 07:50 5.34284 102.64201 37860 ft 486 kts 338°
2026-05-04 07:50 5.40558 102.61679 37867 ft 486 kts 338°
2026-05-04 07:51 5.46866 102.59161 37867 ft 487 kts 338°
2026-05-04 07:51 5.53157 102.56651 37868 ft 486 kts 338°
2026-05-04 07:52 5.59410 102.54160 37862 ft 487 kts 338°
2026-05-04 07:52 5.65742 102.51626 37862 ft 489 kts 339°
2026-05-04 07:54 5.91096 102.41477 37861 ft 492 kts 339°
2026-05-04 07:55 5.97432 102.38940 37856 ft 491 kts 338°
2026-05-04 07:55 6.03813 102.36385 37858 ft 493 kts 339°
2026-05-04 07:56 6.10211 102.33823 37856 ft 493 kts 339°
2026-05-04 07:56 6.16522 102.31196 37857 ft 494 kts 334°
2026-05-04 07:57 6.22683 102.28130 37856 ft 494 kts 333°
2026-05-04 07:57 6.28778 102.25002 37858 ft 494 kts 333°
2026-05-04 07:58 6.34916 102.21833 37870 ft 494 kts 333°
2026-05-04 07:58 6.41013 102.18689 37873 ft 496 kts 333°
2026-05-04 07:59 6.47175 102.15517 37873 ft 496 kts 333°
2026-05-04 07:59 6.53324 102.12355 37872 ft 496 kts 333°
2026-05-04 08:00 6.59442 102.09208 37870 ft 496 kts 333°
2026-05-04 08:02 6.83986 101.96572 37865 ft 495 kts 334°
2026-05-04 08:02 6.90134 101.93404 37859 ft 495 kts 334°
2026-05-04 08:03 6.96284 101.90235 37859 ft 495 kts 334°
2026-05-04 08:03 7.02377 101.87094 37860 ft 495 kts 334°
2026-05-04 08:04 7.08518 101.83927 37860 ft 495 kts 334°
2026-05-04 08:04 7.14636 101.80771 37859 ft 492 kts 334°
2026-05-04 08:05 7.20707 101.77638 37858 ft 492 kts 334°
2026-05-04 08:05 7.26777 101.74506 37859 ft 492 kts 334°
2026-05-04 08:06 7.32871 101.71360 37863 ft 492 kts 334°
2026-05-04 08:06 7.38962 101.68214 37862 ft 492 kts 334°
2026-05-04 08:08 7.63449 101.55558 37861 ft 496 kts 333°
2026-05-04 08:11 7.91148 101.41338 37864 ft 496 kts 334°
2026-05-04 08:11 8.00356 101.36610 37863 ft 496 kts 334°
2026-05-04 08:12 8.06529 101.33439 37863 ft 496 kts 334°
2026-05-04 08:12 8.12662 101.30288 37860 ft 496 kts 334°
2026-05-04 08:13 8.18840 101.27112 37862 ft 497 kts 334°
2026-05-04 08:13 8.25014 101.23938 37860 ft 499 kts 333°
2026-05-04 08:14 8.31186 101.20762 37864 ft 500 kts 333°
2026-05-04 08:16 8.55949 101.08013 37863 ft 500 kts 333°
2026-05-04 08:16 8.62134 101.04840 37862 ft 501 kts 333°
2026-05-04 08:17 8.68364 101.01653 37863 ft 503 kts 333°
2026-05-04 08:17 8.74621 100.98450 37865 ft 504 kts 333°
2026-05-04 08:19 8.99601 100.85650 37863 ft 498 kts 333°
2026-05-04 08:20 9.05749 100.82497 37865 ft 496 kts 333°
2026-05-04 08:20 9.11914 100.79334 37864 ft 496 kts 333°
2026-05-04 08:21 9.18044 100.76188 37862 ft 496 kts 333°
2026-05-04 08:21 9.24224 100.73015 37865 ft 496 kts 333°
2026-05-04 08:22 9.30365 100.69860 37872 ft 496 kts 333°
2026-05-04 08:24 9.54970 100.57213 37875 ft 497 kts 333°
2026-05-04 08:24 9.61147 100.54037 37869 ft 495 kts 334°
2026-05-04 08:25 9.67263 100.50888 37874 ft 495 kts 334°
2026-05-04 08:25 9.73416 100.47731 37876 ft 494 kts 334°
2026-05-04 08:27 9.97968 100.35305 37860 ft 494 kts 334°
2026-05-04 08:28 10.03079 100.32712 37860 ft 494 kts 334°
2026-05-04 08:28 10.10235 100.29081 37860 ft 494 kts 334°
2026-05-04 08:29 10.15359 100.26476 37860 ft 494 kts 334°
2026-05-04 08:31 10.39921 100.13993 37855 ft 491 kts 333°
2026-05-04 08:33 10.64381 100.01543 37853 ft 491 kts 333°
2026-05-04 08:35 10.88794 99.89096 37852 ft 494 kts 332°
2026-05-04 08:35 10.94972 99.85945 37851 ft 494 kts 332°
2026-05-04 08:37 11.16372 99.75010 37844 ft 491 kts 332°
2026-05-04 08:38 11.22448 99.71826 37844 ft 488 kts 331°
2026-05-04 08:38 11.28449 99.68652 37848 ft 488 kts 331°
2026-05-04 08:40 11.52579 99.55950 37848 ft 488 kts 331°
2026-05-04 08:41 11.58620 99.52770 37846 ft 488 kts 331°
2026-05-04 08:41 11.64632 99.49608 37844 ft 488 kts 331°
2026-05-04 08:42 11.70676 99.46452 37842 ft 487 kts 331°
2026-05-04 08:42 11.76736 99.43289 37851 ft 487 kts 332°
2026-05-04 08:43 11.82770 99.40138 37851 ft 486 kts 332°
2026-05-04 08:43 11.88771 99.37000 37840 ft 486 kts 332°
2026-05-04 08:44 11.94805 99.33843 37851 ft 488 kts 332°
2026-05-04 08:46 12.19047 99.21145 37854 ft 489 kts 332°
2026-05-04 08:46 12.25073 99.17984 37854 ft 489 kts 332°
2026-05-04 08:47 12.31142 99.14800 37853 ft 491 kts 332°
2026-05-04 08:47 12.37257 99.11589 37861 ft 494 kts 331°
2026-05-04 08:48 12.43346 99.08390 37849 ft 493 kts 332°
2026-05-04 08:48 12.49454 99.05180 37856 ft 492 kts 332°
2026-05-04 08:49 12.55550 99.01975 37856 ft 492 kts 332°
2026-05-04 08:50 12.76845 98.90763 37857 ft 492 kts 331°
2026-05-04 08:51 12.82941 98.87550 37858 ft 493 kts 332°
2026-05-04 08:51 12.89013 98.84347 37858 ft 493 kts 331°
2026-05-04 08:52 12.95119 98.81124 37862 ft 493 kts 332°
2026-05-04 08:52 13.01214 98.77906 37856 ft 492 kts 331°
2026-05-04 08:54 13.25460 98.65087 37862 ft 490 kts 331°
2026-05-04 08:55 13.31528 98.61874 37859 ft 490 kts 331°
2026-05-04 08:55 13.37553 98.58681 37860 ft 490 kts 331°
2026-05-04 09:01 14.01311 98.25218 37844 ft 490 kts 331°
2026-05-04 09:01 14.07385 98.22029 37844 ft 490 kts 331°
2026-05-04 09:02 14.13461 98.18846 37836 ft 488 kts 331°
2026-05-04 09:02 14.19481 98.15686 37836 ft 488 kts 331°
2026-05-04 09:03 14.25533 98.12503 37841 ft 488 kts 331°
2026-05-04 09:03 14.31571 98.09328 37840 ft 488 kts 331°
2026-05-04 09:04 14.37623 98.06145 37839 ft 487 kts 331°
2026-05-04 09:04 14.43669 98.02965 37838 ft 487 kts 331°
2026-05-04 09:05 14.49690 97.99796 37836 ft 487 kts 331°
2026-05-04 09:05 14.55732 97.96614 37850 ft 487 kts 331°
2026-05-04 09:06 14.61770 97.93431 37837 ft 488 kts 331°
2026-05-04 09:08 14.85931 97.80647 37840 ft 488 kts 330°
2026-05-04 09:08 14.91949 97.77453 37839 ft 488 kts 330°
2026-05-04 09:09 14.97999 97.74249 37840 ft 488 kts 330°
2026-05-04 09:09 15.04019 97.71049 37838 ft 488 kts 330°
2026-05-04 09:10 15.10056 97.67835 37836 ft 488 kts 330°
2026-05-04 09:10 15.16098 97.64618 37837 ft 488 kts 330°
2026-05-04 09:11 15.22097 97.61425 37837 ft 488 kts 330°
2026-05-04 09:11 15.28150 97.58201 37842 ft 488 kts 330°
2026-05-04 09:12 15.34197 97.54977 37835 ft 488 kts 330°
2026-05-04 09:14 15.58420 97.42294 37835 ft 490 kts 332°
2026-05-04 09:14 15.64499 97.39168 37833 ft 491 kts 332°
2026-05-04 09:15 15.70626 97.36006 37834 ft 491 kts 332°
2026-05-04 09:15 15.76752 97.32839 37837 ft 491 kts 332°
2026-05-04 09:17 16.03170 97.19159 37829 ft 489 kts 332°
2026-05-04 09:18 16.09283 97.15989 37831 ft 489 kts 332°
2026-05-04 09:18 16.15348 97.12840 37830 ft 489 kts 332°
2026-05-04 09:19 16.21446 97.09672 37823 ft 489 kts 332°
2026-05-04 09:19 16.27538 97.06506 37819 ft 489 kts 332°
2026-05-04 09:20 16.33602 97.03351 37824 ft 488 kts 332°
2026-05-04 09:20 16.39687 97.00184 37820 ft 488 kts 332°
2026-05-04 09:21 16.45768 96.97016 37827 ft 488 kts 332°
2026-05-04 09:21 16.51817 96.93863 37821 ft 488 kts 332°
2026-05-04 09:22 16.57884 96.90698 37819 ft 488 kts 332°
2026-05-04 09:22 16.63970 96.87521 37820 ft 490 kts 331°
2026-05-04 09:23 16.70085 96.84326 37818 ft 491 kts 331°
2026-05-04 09:23 16.76181 96.81140 37828 ft 490 kts 331°
2026-05-04 09:25 17.00483 96.68413 37817 ft 487 kts 330°
2026-05-04 09:26 17.06539 96.65236 37808 ft 486 kts 330°
2026-05-04 09:26 17.12600 96.62053 37802 ft 486 kts 330°
2026-05-04 09:27 17.18627 96.58887 37803 ft 486 kts 330°
2026-05-04 09:27 17.24677 96.55705 37813 ft 486 kts 330°
2026-05-04 09:28 17.30528 96.52167 37800 ft 482 kts 320°
2026-05-04 09:28 17.35202 96.47267 37795 ft 477 kts 307°
2026-05-04 09:29 17.39286 96.41764 37795 ft 478 kts 305°
2026-05-04 09:29 17.43241 96.36205 37798 ft 478 kts 305°
2026-05-04 09:30 17.47222 96.30621 37797 ft 478 kts 305°
2026-05-04 09:30 17.51228 96.25043 37796 ft 478 kts 305°
2026-05-04 09:31 17.55217 96.19503 37796 ft 478 kts 305°
2026-05-04 09:31 17.59228 96.13929 37795 ft 478 kts 305°
2026-05-04 09:32 17.63238 96.08351 37798 ft 478 kts 305°
2026-05-04 09:34 17.79124 95.86198 37793 ft 474 kts 305°
2026-05-04 09:34 17.83095 95.80648 37796 ft 474 kts 305°
2026-05-04 09:35 17.87039 95.75132 37791 ft 474 kts 305°
2026-05-04 09:35 17.91005 95.69581 37789 ft 474 kts 305°
2026-05-04 09:37 18.06792 95.47437 37788 ft 471 kts 305°
2026-05-04 09:38 18.10693 95.41955 37785 ft 471 kts 305°
2026-05-04 09:38 18.14627 95.36420 37785 ft 471 kts 305°
2026-05-04 09:39 18.18551 95.30895 37799 ft 471 kts 305°
2026-05-04 09:39 18.22457 95.25389 37798 ft 472 kts 305°
2026-05-04 09:40 18.26389 95.19844 37793 ft 472 kts 305°
2026-05-04 09:40 18.30329 95.14283 37814 ft 472 kts 305°
2026-05-04 09:42 18.45226 94.91639 37835 ft 469 kts 303°
2026-05-04 09:43 18.48953 94.85971 37854 ft 470 kts 303°
2026-05-04 09:43 18.52679 94.80302 37852 ft 470 kts 303°
2026-05-04 09:44 18.56374 94.74671 37856 ft 470 kts 303°
2026-05-04 09:46 18.71683 94.52317 37860 ft 470 kts 304°
2026-05-04 09:46 18.75509 94.46748 37859 ft 471 kts 304°
2026-05-04 09:47 18.79358 94.41137 37848 ft 471 kts 304°
2026-05-04 09:49 18.94702 94.18723 37840 ft 471 kts 303°
2026-05-04 09:51 19.08112 93.99069 37836 ft 472 kts 303°
2026-05-04 09:51 19.11924 93.93469 37836 ft 471 kts 303°
2026-05-04 09:52 19.15753 93.87841 37835 ft 471 kts 303°
2026-05-04 09:52 19.19589 93.82197 37835 ft 471 kts 303°
2026-05-04 09:53 19.23420 93.76556 37836 ft 472 kts 303°
2026-05-04 09:53 19.27228 93.70943 37836 ft 472 kts 303°
2026-05-04 09:54 19.31063 93.65285 37836 ft 473 kts 303°
2026-05-04 09:54 19.34899 93.59621 37841 ft 472 kts 303°
2026-05-04 09:55 19.38710 93.53988 37836 ft 472 kts 303°
2026-05-04 09:55 19.42542 93.48318 37843 ft 472 kts 303°
2026-05-04 09:56 19.46375 93.42642 37838 ft 473 kts 303°
2026-05-04 09:56 19.50185 93.36995 37852 ft 473 kts 303°
2026-05-04 09:57 19.54016 93.31311 37849 ft 473 kts 303°
2026-05-04 09:57 19.57823 93.25658 37849 ft 473 kts 303°
2026-05-04 09:58 19.61651 93.19968 37846 ft 473 kts 303°
2026-05-04 09:58 19.65474 93.14281 37843 ft 473 kts 303°
2026-05-04 10:00 19.80728 92.91532 37850 ft 473 kts 303°
2026-05-04 10:04 20.07366 92.51598 37853 ft 475 kts 303°
2026-05-04 10:04 20.11188 92.45846 37850 ft 475 kts 303°
2026-05-04 10:05 20.15006 92.40096 37856 ft 474 kts 303°
2026-05-04 10:05 20.18175 92.35317 37852 ft 474 kts 303°
2026-05-04 10:06 20.22608 92.28627 37855 ft 474 kts 303°
2026-05-04 10:06 20.26392 92.22909 37859 ft 474 kts 303°
2026-05-04 10:08 20.39052 92.03742 37853 ft 474 kts 303°
2026-05-04 10:08 20.42838 91.97996 37859 ft 474 kts 303°
2026-05-04 10:09 20.46596 91.92208 37864 ft 474 kts 302°
2026-05-04 10:09 20.50340 91.86398 37861 ft 472 kts 302°
2026-05-04 10:10 20.54045 91.80654 37855 ft 472 kts 302°
2026-05-04 10:10 20.57753 91.74910 37851 ft 472 kts 302°
2026-05-04 10:11 20.61483 91.69129 37858 ft 472 kts 302°
2026-05-04 10:11 20.65189 91.63381 37857 ft 472 kts 302°
2026-05-04 10:12 20.68912 91.57599 37861 ft 472 kts 302°
2026-05-04 10:12 20.72634 91.51814 37861 ft 471 kts 302°
2026-05-04 10:13 20.76334 91.46056 37846 ft 471 kts 302°
2026-05-04 10:13 20.80052 91.40265 37856 ft 471 kts 302°
2026-05-04 10:14 20.83738 91.34516 37863 ft 472 kts 302°
2026-05-04 10:16 20.98562 91.11344 37857 ft 471 kts 302°
2026-05-04 10:16 21.02270 91.05533 37849 ft 471 kts 302°
2026-05-04 10:17 21.05945 90.99767 37858 ft 471 kts 302°
2026-05-04 10:19 21.20682 90.76587 37853 ft 470 kts 302°
2026-05-04 10:19 21.24359 90.70789 37851 ft 469 kts 302°
2026-05-04 10:20 21.28006 90.65032 37852 ft 469 kts 302°
2026-05-04 10:20 21.31673 90.59236 37850 ft 469 kts 302°
2026-05-04 10:21 21.35314 90.53479 37848 ft 468 kts 302°
2026-05-04 10:21 21.38984 90.47674 37848 ft 468 kts 302°
2026-05-04 10:22 21.44474 90.38979 37849 ft 468 kts 302°
2026-05-04 10:23 21.48105 90.33220 37850 ft 468 kts 301°
2026-05-04 10:25 21.62665 90.10068 37844 ft 467 kts 301°
2026-05-04 10:25 21.66273 90.04316 37843 ft 467 kts 301°
2026-05-04 10:26 21.69912 89.98509 37833 ft 467 kts 301°
2026-05-04 10:26 21.73542 89.92709 37838 ft 467 kts 301°
2026-05-04 10:27 21.77155 89.86932 37837 ft 467 kts 301°
2026-05-04 10:27 21.80793 89.81107 37846 ft 467 kts 301°
2026-05-04 10:28 21.84417 89.75299 37839 ft 466 kts 301°
2026-05-04 10:28 21.88020 89.69518 37837 ft 466 kts 301°
2026-05-04 10:29 21.91636 89.63709 37834 ft 466 kts 301°
2026-05-04 10:29 21.95224 89.57941 37834 ft 466 kts 301°
2026-05-04 10:30 21.98841 89.52119 37835 ft 466 kts 301°
2026-05-04 10:30 22.02422 89.46348 37835 ft 466 kts 301°
2026-05-04 10:31 22.06032 89.40525 37835 ft 466 kts 301°
2026-05-04 10:32 22.18611 89.20186 37824 ft 465 kts 300°
2026-05-04 10:33 22.22199 89.14371 37821 ft 465 kts 300°
2026-05-04 10:33 22.25786 89.08550 37820 ft 465 kts 300°
2026-05-04 10:34 22.29350 89.02760 37818 ft 465 kts 300°
2026-05-04 10:34 22.33011 88.96972 37816 ft 466 kts 302°
2026-05-04 10:35 22.36796 88.91333 37810 ft 466 kts 303°
2026-05-04 10:35 22.40610 88.85661 37810 ft 466 kts 302°
2026-05-04 10:36 22.44399 88.79967 37809 ft 465 kts 302°
2026-05-04 10:36 22.48167 88.74271 37804 ft 465 kts 302°
2026-05-04 10:37 22.51914 88.68595 37803 ft 465 kts 302°
2026-05-04 10:37 22.55689 88.62873 37802 ft 465 kts 302°
2026-05-04 10:39 22.68817 88.42901 37802 ft 466 kts 300°
2026-05-04 10:40 22.72249 88.36994 37801 ft 465 kts 297°
2026-05-04 10:40 22.75584 88.30978 37799 ft 465 kts 298°
2026-05-04 10:41 22.78958 88.24977 37799 ft 466 kts 298°
2026-05-04 10:41 22.82370 88.18991 37797 ft 466 kts 298°
2026-05-04 10:42 22.85773 88.13040 37790 ft 466 kts 298°
2026-05-04 10:42 22.89189 88.07060 37792 ft 466 kts 297°
2026-05-04 10:43 22.92597 88.01081 37790 ft 466 kts 297°
2026-05-04 10:45 23.06204 87.77133 37786 ft 466 kts 297°
2026-05-04 10:45 23.09610 87.71123 37800 ft 466 kts 297°
2026-05-04 10:46 23.13002 87.65129 37787 ft 464 kts 297°
2026-05-04 10:46 23.16364 87.59181 37788 ft 464 kts 297°
2026-05-04 10:47 23.19740 87.53201 37787 ft 464 kts 297°
2026-05-04 10:47 23.23119 87.47209 37785 ft 464 kts 297°
2026-05-04 10:49 23.36571 87.23284 37785 ft 464 kts 297°
2026-05-04 10:50 23.39929 87.17295 37792 ft 464 kts 297°
2026-05-04 10:52 23.53370 86.93276 37805 ft 465 kts 297°
2026-05-04 10:52 23.56742 86.87242 37804 ft 465 kts 296°
2026-05-04 10:54 23.69613 86.64141 37815 ft 465 kts 296°
2026-05-04 10:56 23.83001 86.40147 37825 ft 464 kts 299°
2026-05-04 10:57 23.86705 86.34340 37821 ft 465 kts 300°
2026-05-04 10:57 23.90450 86.28579 37822 ft 465 kts 300°
2026-05-04 10:58 23.94132 86.22817 37830 ft 464 kts 300°
2026-05-04 10:58 23.97804 86.17004 37837 ft 464 kts 300°
2026-05-04 10:59 24.01468 86.11177 37827 ft 465 kts 299°
2026-05-04 10:59 24.05137 86.05337 37814 ft 466 kts 299°
2026-05-04 11:00 24.08811 85.99487 37822 ft 466 kts 299°
2026-05-04 11:02 24.23465 85.76095 37786 ft 467 kts 299°
2026-05-04 11:05 24.50894 85.32002 37751 ft 468 kts 298°
2026-05-04 11:06 24.54561 85.26077 37749 ft 468 kts 298°
2026-05-04 11:06 24.58225 85.20151 37730 ft 468 kts 298°
2026-05-04 11:10 24.80185 84.77149 37800 ft 458 kts 285°
2026-05-04 11:12 24.89301 84.50885 37728 ft 460 kts 285°
2026-05-04 11:12 24.91576 84.44328 37734 ft 460 kts 285°
2026-05-04 11:13 24.93857 84.37744 37729 ft 459 kts 285°
2026-05-04 11:13 24.96126 84.31181 37727 ft 458 kts 285°
2026-05-04 11:14 24.98391 84.24615 37731 ft 458 kts 285°
2026-05-04 11:16 25.07412 83.98360 37742 ft 458 kts 285°
2026-05-04 11:16 25.09669 83.91767 37741 ft 458 kts 285°
2026-05-04 11:17 25.11907 83.85218 37752 ft 458 kts 285°
2026-05-04 11:19 25.20867 83.58884 37767 ft 458 kts 285°
2026-05-04 11:19 25.23106 83.52277 37771 ft 458 kts 284°
2026-05-04 11:20 25.25335 83.45688 37770 ft 457 kts 284°
2026-05-04 11:20 25.27545 83.39142 37767 ft 456 kts 284°
2026-05-04 11:22 25.36382 83.12862 37768 ft 456 kts 284°
2026-05-04 11:23 25.38589 83.06273 37765 ft 455 kts 284°
2026-05-04 11:25 25.47024 82.83627 37795 ft 466 kts 297°
2026-05-04 11:25 25.50795 82.77812 37767 ft 465 kts 300°
2026-05-04 11:27 25.68361 82.51909 37758 ft 468 kts 299°
2026-05-04 11:28 25.72265 82.46103 37760 ft 468 kts 299°
2026-05-04 11:28 25.76137 82.40338 37781 ft 468 kts 299°
2026-05-04 11:29 25.80039 82.34523 37755 ft 468 kts 299°
2026-05-04 11:29 25.83919 82.28733 37755 ft 468 kts 299°
2026-05-04 11:33 26.11022 81.88089 37763 ft 467 kts 298°
2026-05-04 11:33 26.14882 81.82268 37763 ft 467 kts 298°
2026-05-04 11:34 26.18745 81.76438 37763 ft 467 kts 298°
2026-05-04 11:34 26.22580 81.70643 37763 ft 467 kts 298°
2026-05-04 11:35 26.26433 81.64814 37783 ft 466 kts 298°
2026-05-04 11:35 26.30256 81.59023 37765 ft 464 kts 298°
2026-05-04 11:36 26.34093 81.53205 37763 ft 463 kts 298°
2026-05-04 11:36 26.37884 81.47446 37768 ft 463 kts 298°
2026-05-04 11:37 26.41698 81.41643 37768 ft 463 kts 298°
2026-05-04 11:37 26.45491 81.35868 37768 ft 463 kts 298°
2026-05-04 11:38 26.49298 81.30063 37771 ft 463 kts 298°
2026-05-04 11:38 26.53105 81.24251 37771 ft 462 kts 298°
2026-05-04 11:39 26.56879 81.18484 37772 ft 462 kts 298°
2026-05-04 11:41 26.70108 80.98204 37770 ft 461 kts 298°
2026-05-04 11:41 26.73864 80.92429 37769 ft 461 kts 298°
2026-05-04 11:42 26.77693 80.86658 37743 ft 463 kts 301°
2026-05-04 11:42 26.81916 80.81161 37748 ft 466 kts 303°
2026-05-04 11:43 26.85505 80.76639 37757 ft 465 kts 303°
2026-05-04 11:43 26.89764 80.71172 37766 ft 465 kts 302°
2026-05-04 11:44 26.93954 80.65695 37774 ft 465 kts 302°
2026-05-04 11:44 26.98158 80.60166 37787 ft 465 kts 301°
2026-05-04 11:45 27.02339 80.54664 37784 ft 465 kts 301°
2026-05-04 11:45 27.06541 80.49130 37791 ft 466 kts 301°
2026-05-04 11:46 27.10745 80.43588 37789 ft 466 kts 301°
2026-05-04 11:46 27.14952 80.38035 37829 ft 466 kts 301°
2026-05-04 11:47 27.19138 80.32503 37792 ft 467 kts 301°
2026-05-04 11:47 27.23349 80.26931 37793 ft 467 kts 301°
2026-05-04 11:48 27.27531 80.21391 37794 ft 467 kts 301°
2026-05-04 11:48 27.31734 80.15814 37809 ft 467 kts 301°
2026-05-04 11:49 27.35938 80.10230 37801 ft 467 kts 301°
2026-05-04 11:49 27.40114 80.04676 37805 ft 467 kts 301°
2026-05-04 11:50 27.44322 79.99072 37809 ft 468 kts 301°
2026-05-04 11:50 27.48525 79.93465 37812 ft 469 kts 301°
2026-05-04 11:51 27.52711 79.87876 37813 ft 469 kts 301°
2026-05-04 11:51 27.56922 79.82247 37816 ft 469 kts 301°
2026-05-04 11:52 27.61130 79.76615 37812 ft 469 kts 301°
2026-05-04 11:52 27.65335 79.70977 37812 ft 469 kts 301°
2026-05-04 11:53 27.69588 79.65415 37848 ft 474 kts 306°
2026-05-04 11:53 27.74238 79.60076 37818 ft 477 kts 306°
2026-05-04 11:55 27.93042 79.38979 37821 ft 476 kts 306°
2026-05-04 11:56 27.97737 79.33686 37824 ft 476 kts 306°
2026-05-04 11:56 28.02442 79.28375 37827 ft 476 kts 306°
2026-05-04 11:57 28.07101 79.23110 37828 ft 476 kts 306°
2026-05-04 11:57 28.11804 79.17788 37834 ft 476 kts 306°
2026-05-04 11:58 28.16500 79.12468 37832 ft 476 kts 306°
2026-05-04 11:58 28.21153 79.07188 37829 ft 476 kts 306°
2026-05-04 11:59 28.25847 79.01855 37831 ft 476 kts 306°
2026-05-04 11:59 28.30513 78.96547 37829 ft 477 kts 306°
2026-05-04 12:00 28.35205 78.91203 37835 ft 477 kts 306°
2026-05-04 12:00 28.39896 78.85853 37835 ft 477 kts 306°
2026-05-04 12:01 28.44552 78.80536 37832 ft 477 kts 306°
2026-05-04 12:02 28.63031 78.63913 37831 ft 484 kts 314°
2026-05-04 12:03 28.68387 78.59266 37830 ft 483 kts 314°
2026-05-04 12:03 28.73698 78.54640 37828 ft 483 kts 314°
2026-05-04 12:04 28.79038 78.49981 37832 ft 483 kts 314°
2026-05-04 12:04 28.84380 78.45313 37830 ft 483 kts 314°
2026-05-04 12:05 28.89715 78.40645 37824 ft 483 kts 314°
2026-05-04 12:05 28.95007 78.36010 37827 ft 483 kts 314°
2026-05-04 12:06 29.00336 78.31336 37827 ft 483 kts 314°
2026-05-04 12:06 29.05679 78.26643 37826 ft 483 kts 315°
2026-05-04 12:07 29.11003 78.21961 37823 ft 483 kts 315°
2026-05-04 12:07 29.16298 78.17299 37828 ft 483 kts 315°
2026-05-04 12:08 29.21625 78.12602 37821 ft 483 kts 315°
2026-05-04 12:08 29.26968 78.07884 37823 ft 483 kts 315°
2026-05-04 12:09 29.32265 78.03200 37828 ft 483 kts 315°
2026-05-04 12:09 29.37599 77.98477 37824 ft 484 kts 315°
2026-05-04 12:10 29.42896 77.93781 37835 ft 483 kts 315°
2026-05-04 12:10 29.48206 77.89071 37827 ft 480 kts 315°
2026-05-04 12:11 29.53493 77.84371 37830 ft 480 kts 315°
2026-05-04 12:11 29.58751 77.79689 37829 ft 480 kts 315°
2026-05-04 12:12 29.64055 77.74959 37831 ft 481 kts 315°
2026-05-04 12:12 29.69317 77.70262 37831 ft 481 kts 315°
2026-05-04 12:14 29.90432 77.51352 37841 ft 480 kts 316°
2026-05-04 12:15 29.95717 77.46603 37843 ft 480 kts 316°
2026-05-04 12:15 30.01322 77.42395 37845 ft 488 kts 325°
2026-05-04 12:16 30.07377 77.38760 37861 ft 490 kts 327°
2026-05-04 12:16 30.13488 77.35227 37838 ft 492 kts 327°
2026-05-04 12:17 30.19581 77.31709 37837 ft 492 kts 327°
2026-05-04 12:17 30.25727 77.28138 37846 ft 492 kts 327°
2026-05-04 12:18 30.31807 77.24590 37845 ft 492 kts 327°
2026-05-04 12:18 30.37806 77.20792 37829 ft 485 kts 319°
2026-05-04 12:19 30.42678 77.15594 37845 ft 471 kts 304°
2026-05-04 12:19 30.46720 77.09691 37831 ft 470 kts 302°
2026-05-04 12:20 30.50648 77.03625 37817 ft 470 kts 301°
2026-05-04 12:20 30.54577 76.97542 37839 ft 470 kts 302°
2026-05-04 12:21 30.58531 76.91463 37823 ft 470 kts 302°
2026-05-04 12:21 30.62465 76.85427 37819 ft 470 kts 302°
2026-05-04 12:22 30.66419 76.79323 37836 ft 472 kts 300°
2026-05-04 12:22 30.69493 76.72730 37819 ft 464 kts 289°
2026-05-04 12:23 30.71978 76.65774 37834 ft 464 kts 287°
2026-05-04 12:23 30.74334 76.58833 37836 ft 464 kts 287°
2026-05-04 12:24 30.76704 76.51833 37814 ft 464 kts 287°
2026-05-04 12:24 30.79080 76.44852 37817 ft 464 kts 288°
2026-05-04 12:25 30.81445 76.37914 37818 ft 464 kts 288°
2026-05-04 12:25 30.83834 76.30894 37812 ft 466 kts 288°
2026-05-04 12:26 30.86213 76.23888 37812 ft 466 kts 288°
2026-05-04 12:26 30.88598 76.16852 37811 ft 466 kts 288°
2026-05-04 12:27 30.90963 76.09856 37810 ft 466 kts 288°
2026-05-04 12:27 30.93339 76.02814 37805 ft 466 kts 288°
2026-05-04 12:28 30.95696 75.95810 37808 ft 466 kts 288°
2026-05-04 12:28 30.98068 75.88751 37805 ft 466 kts 288°
2026-05-04 12:29 31.00417 75.81744 37804 ft 466 kts 288°
2026-05-04 12:29 31.02775 75.74695 37803 ft 467 kts 288°
2026-05-04 12:30 31.05138 75.67618 37802 ft 467 kts 288°
2026-05-04 12:30 31.07479 75.60590 37797 ft 466 kts 288°
2026-05-04 12:31 31.09445 75.54677 37796 ft 466 kts 288°
2026-05-04 12:31 31.11775 75.47658 37790 ft 466 kts 288°
2026-05-04 12:32 31.14654 75.36822 37794 ft 464 kts 283°
2026-05-04 12:33 31.16372 75.29593 37790 ft 465 kts 284°
2026-05-04 12:33 31.18159 75.22336 37788 ft 465 kts 284°
2026-05-04 12:34 31.19984 75.15087 37780 ft 465 kts 284°
2026-05-04 12:34 31.21804 75.07877 37783 ft 465 kts 284°
2026-05-04 12:35 31.23632 75.00611 37780 ft 464 kts 285°
2026-05-04 12:35 31.25443 74.93385 37779 ft 462 kts 285°
2026-05-04 12:36 31.27234 74.86219 37767 ft 462 kts 284°
2026-05-04 12:36 31.29037 74.78981 37781 ft 462 kts 284°
2026-05-04 12:37 31.30820 74.71804 37776 ft 462 kts 284°
2026-05-04 12:37 31.32610 74.64584 37772 ft 462 kts 284°
2026-05-04 12:38 31.34397 74.57356 37774 ft 462 kts 284°
2026-05-04 12:38 31.35994 74.50132 37776 ft 461 kts 281°
2026-05-04 12:39 31.37309 74.42784 37769 ft 461 kts 280°
2026-05-04 12:39 31.38623 74.35435 37785 ft 461 kts 281°
2026-05-04 12:40 31.39982 74.28104 37771 ft 459 kts 281°
2026-05-04 12:40 31.41349 74.20837 37774 ft 459 kts 281°
2026-05-04 12:41 31.42717 74.13562 37770 ft 458 kts 281°
2026-05-04 12:41 31.44082 74.06242 37761 ft 458 kts 281°
2026-05-04 12:42 31.44568 73.98823 37759 ft 457 kts 266°
2026-05-04 12:42 31.43994 73.91442 37759 ft 457 kts 264°
2026-05-04 12:43 31.43229 73.84042 37757 ft 457 kts 264°
2026-05-04 12:43 31.42446 73.76652 37758 ft 457 kts 264°
2026-05-04 12:44 31.41683 73.69295 37758 ft 457 kts 264°
2026-05-04 12:44 31.40920 73.61899 37747 ft 457 kts 264°
2026-05-04 12:45 31.40157 73.54524 37747 ft 455 kts 264°
2026-05-04 12:45 31.39395 73.47201 37745 ft 455 kts 264°
2026-05-04 12:46 31.38623 73.39827 37746 ft 455 kts 264°
2026-05-04 12:46 31.37848 73.32457 37746 ft 455 kts 264°
2026-05-04 12:47 31.37073 73.25141 37742 ft 454 kts 264°
2026-05-04 12:47 31.36291 73.17795 37733 ft 454 kts 264°
2026-05-04 12:48 31.35509 73.10487 37695 ft 454 kts 264°
2026-05-04 12:48 31.34719 73.03143 37689 ft 453 kts 264°
2026-05-04 12:49 31.33934 72.95863 37696 ft 453 kts 264°
2026-05-04 12:49 31.33138 72.88528 37694 ft 456 kts 265°
2026-05-04 12:50 31.32331 72.81153 37702 ft 457 kts 265°
2026-05-04 12:50 31.31518 72.73773 37708 ft 457 kts 265°
2026-05-04 12:51 31.30709 72.66447 37719 ft 457 kts 265°
2026-05-04 12:51 31.29888 72.59059 37709 ft 457 kts 265°
2026-05-04 12:52 31.29064 72.51678 37716 ft 457 kts 265°
2026-05-04 12:52 31.28241 72.44346 37716 ft 457 kts 265°
2026-05-04 12:53 31.27457 72.36961 37719 ft 456 kts 268°
2026-05-04 12:53 31.27821 72.29607 37721 ft 452 kts 283°
2026-05-04 12:54 31.29951 72.22734 37716 ft 450 kts 296°
2026-05-04 12:54 31.32848 72.16310 37718 ft 448 kts 298°
2026-05-04 12:55 31.35866 72.09922 37731 ft 448 kts 298°
2026-05-04 12:55 31.38870 72.03518 37725 ft 448 kts 298°
2026-05-04 12:56 31.41838 71.97119 37720 ft 449 kts 298°
2026-05-04 12:56 31.44791 71.90715 37691 ft 448 kts 298°
2026-05-04 12:57 31.47757 71.84268 37730 ft 450 kts 298°
2026-05-04 12:57 31.50734 71.77790 37732 ft 451 kts 298°
2026-05-04 12:58 31.53689 71.71351 37740 ft 451 kts 298°
2026-05-04 12:58 31.56660 71.64866 37733 ft 451 kts 298°
2026-05-04 12:59 31.59628 71.58380 37732 ft 451 kts 298°
2026-05-04 12:59 31.62591 71.51891 37723 ft 450 kts 298°
2026-05-04 13:00 31.65520 71.45447 37728 ft 449 kts 298°
2026-05-04 13:00 31.68466 71.38960 37734 ft 449 kts 298°
2026-05-04 13:01 31.71388 71.32517 37733 ft 449 kts 298°
2026-05-04 13:01 31.74327 71.26028 37728 ft 449 kts 298°
2026-05-04 13:02 31.77265 71.19530 37730 ft 449 kts 298°
2026-05-04 13:02 31.80190 71.13049 37728 ft 449 kts 298°
2026-05-04 13:03 31.83092 71.06606 37734 ft 449 kts 298°
2026-05-04 13:03 31.86014 71.00109 37726 ft 449 kts 298°
2026-05-04 13:04 31.88919 70.93639 37730 ft 449 kts 298°
2026-05-04 13:04 31.92098 70.87324 37723 ft 448 kts 306°
2026-05-04 13:05 31.95822 70.81444 37746 ft 446 kts 307°
2026-05-04 13:05 31.99613 70.75670 37744 ft 443 kts 307°
2026-05-04 13:06 32.03373 70.69961 37744 ft 443 kts 307°
2026-05-04 13:06 32.07146 70.64205 37750 ft 443 kts 307°
2026-05-04 13:07 32.10915 70.58431 37742 ft 443 kts 307°
2026-05-04 13:07 32.14654 70.52691 37739 ft 443 kts 307°
2026-05-04 13:08 32.18414 70.46911 37757 ft 442 kts 307°
2026-05-04 13:08 32.22159 70.41147 37756 ft 441 kts 307°
2026-05-04 13:09 32.25868 70.35428 37757 ft 441 kts 307°
2026-05-04 13:09 32.29607 70.29655 37766 ft 441 kts 307°
2026-05-04 13:10 32.33347 70.23873 37777 ft 441 kts 307°
2026-05-04 13:10 32.37051 70.18136 37785 ft 441 kts 307°
2026-05-04 13:11 32.40838 70.12400 37811 ft 442 kts 308°
2026-05-04 13:11 32.44680 70.06686 37812 ft 442 kts 308°
2026-05-04 13:12 32.48481 70.01014 37840 ft 442 kts 308°
2026-05-04 13:12 32.52305 69.95275 37844 ft 443 kts 308°
2026-05-04 13:13 32.56115 69.89540 37870 ft 442 kts 308°
2026-05-04 13:13 32.59895 69.83842 37859 ft 442 kts 308°
2026-05-04 13:14 32.63707 69.78089 37875 ft 442 kts 308°
2026-05-04 13:14 32.67515 69.72332 37871 ft 442 kts 308°
2026-05-04 13:15 32.71295 69.66609 37869 ft 442 kts 308°
2026-05-04 13:15 32.75089 69.60856 37861 ft 442 kts 308°
2026-05-04 13:16 32.78858 69.55130 37865 ft 441 kts 308°
2026-05-04 13:16 32.82648 69.49366 37851 ft 441 kts 308°
2026-05-04 13:17 32.86434 69.43599 37856 ft 443 kts 308°
2026-05-04 13:17 32.90206 69.37839 37851 ft 443 kts 308°
2026-05-04 13:18 32.93987 69.32027 37848 ft 444 kts 308°
2026-05-04 13:18 32.97767 69.26209 37869 ft 444 kts 308°
2026-05-04 13:19 33.01551 69.20381 37855 ft 444 kts 308°
2026-05-04 13:19 33.05307 69.14591 37858 ft 443 kts 308°
2026-05-04 13:20 33.09069 69.08782 37849 ft 442 kts 307°
2026-05-04 13:20 33.12830 69.02965 37848 ft 441 kts 307°
2026-05-04 13:21 33.16562 68.97183 37861 ft 442 kts 307°
2026-05-04 13:21 33.19708 68.92302 37839 ft 443 kts 307°
2026-05-04 13:22 33.23443 68.86500 37834 ft 443 kts 307°
2026-05-04 13:22 33.27201 68.80654 37821 ft 442 kts 307°
2026-05-04 13:23 33.31051 68.74949 37818 ft 442 kts 310°
2026-05-04 13:23 33.35108 68.69404 37813 ft 442 kts 310°
2026-05-04 13:24 33.39143 68.63882 37822 ft 444 kts 310°
2026-05-04 13:24 33.43195 68.58253 37817 ft 446 kts 310°
2026-05-04 13:25 33.49239 68.49777 37822 ft 445 kts 310°
2026-05-04 13:25 33.53236 68.44161 37856 ft 444 kts 310°
2026-05-04 13:26 33.57233 68.38497 37864 ft 443 kts 309°
2026-05-04 13:26 33.61111 68.32795 37894 ft 443 kts 309°
2026-05-04 13:27 33.65000 68.27038 37893 ft 443 kts 309°
2026-05-04 13:27 33.68892 68.21297 37900 ft 443 kts 309°
2026-05-04 13:28 33.72775 68.15581 37926 ft 441 kts 309°
2026-05-04 13:28 33.76654 68.09865 37937 ft 439 kts 308°
2026-05-04 13:29 33.80503 68.04185 37916 ft 440 kts 309°
2026-05-04 13:29 33.84371 67.98465 37937 ft 440 kts 309°
2026-05-04 13:30 33.88218 67.92769 37957 ft 440 kts 309°
2026-05-04 13:30 33.92087 67.87031 37960 ft 440 kts 309°
2026-05-04 13:31 33.95924 67.81331 37956 ft 440 kts 308°
2026-05-04 13:31 33.99793 67.75572 37965 ft 441 kts 308°
2026-05-04 13:32 34.03601 67.69811 37973 ft 441 kts 308°
2026-05-04 13:32 34.07423 67.63996 37968 ft 441 kts 308°
2026-05-04 13:33 34.11229 67.58210 37974 ft 441 kts 308°
2026-05-04 13:33 34.15053 67.52396 37976 ft 441 kts 308°
2026-05-04 13:34 34.18843 67.46630 37967 ft 440 kts 308°
2026-05-04 13:34 34.22646 67.40832 37960 ft 439 kts 308°
2026-05-04 13:35 34.28350 67.32119 37966 ft 440 kts 308°
2026-05-04 13:36 34.32146 67.26308 37969 ft 440 kts 308°
2026-05-04 13:36 34.35928 67.20508 37972 ft 439 kts 308°
2026-05-04 13:37 34.39706 67.14702 37966 ft 436 kts 307°
2026-05-04 13:37 34.43450 67.08944 37983 ft 436 kts 308°
2026-05-04 13:38 34.47197 67.03172 37979 ft 437 kts 307°
2026-05-04 13:38 34.50962 66.97359 38007 ft 438 kts 308°
2026-05-04 13:39 34.54710 66.91569 37988 ft 438 kts 308°
2026-05-04 13:39 34.58471 66.85738 37992 ft 437 kts 307°
2026-05-04 13:40 34.62210 66.79927 37998 ft 435 kts 307°
2026-05-04 13:40 34.65911 66.74166 38003 ft 435 kts 307°
2026-05-04 13:41 34.69647 66.68342 37987 ft 436 kts 307°
2026-05-04 13:41 34.73375 66.62528 38003 ft 435 kts 307°
2026-05-04 13:42 34.78938 66.53828 38015 ft 435 kts 308°
2026-05-04 13:42 34.82656 66.47997 38022 ft 435 kts 308°
2026-05-04 13:43 34.86363 66.42174 38049 ft 434 kts 307°
2026-05-04 13:43 34.90040 66.36390 38029 ft 434 kts 307°
2026-05-04 13:44 34.93742 66.30558 38013 ft 436 kts 307°
2026-05-04 13:44 34.97439 66.24730 38012 ft 436 kts 307°
2026-05-04 13:45 35.01129 66.18858 38047 ft 434 kts 307°
2026-05-04 13:45 35.04791 66.12976 38037 ft 434 kts 307°
2026-05-04 13:46 35.08427 66.07138 38045 ft 434 kts 307°
2026-05-04 13:46 35.12089 66.01251 38053 ft 434 kts 307°
2026-05-04 13:47 35.15732 65.95390 38059 ft 434 kts 307°
2026-05-04 13:47 35.19388 65.89501 38059 ft 434 kts 306°
2026-05-04 13:48 35.23013 65.83653 38061 ft 433 kts 306°
2026-05-04 13:48 35.26667 65.77744 38062 ft 434 kts 306°
2026-05-04 13:49 35.30316 65.71836 38050 ft 434 kts 306°
2026-05-04 13:49 35.33942 65.65953 38076 ft 435 kts 306°
2026-05-04 13:50 35.37591 65.60026 38051 ft 435 kts 306°
2026-05-04 13:50 35.41219 65.54122 38061 ft 434 kts 306°
2026-05-04 13:51 35.44859 65.48186 38040 ft 434 kts 306°
2026-05-04 13:51 35.48475 65.42281 38061 ft 435 kts 306°
2026-05-04 13:52 35.53936 65.33344 38064 ft 436 kts 306°
2026-05-04 13:53 35.57560 65.27402 38047 ft 436 kts 306°
2026-05-04 13:53 35.61189 65.21439 38047 ft 435 kts 306°
2026-05-04 13:54 35.66601 65.12530 38024 ft 434 kts 306°
2026-05-04 13:55 35.72028 65.03572 38018 ft 435 kts 306°
2026-05-04 13:55 35.77443 64.94612 37988 ft 436 kts 306°
2026-05-04 13:56 35.81059 64.88614 38000 ft 435 kts 306°
2026-05-04 13:57 35.86441 64.79667 37963 ft 434 kts 305°
2026-05-04 13:58 35.93651 64.67648 37954 ft 436 kts 305°
2026-05-04 13:58 35.99034 64.58647 37954 ft 436 kts 305°
2026-05-04 13:59 36.02638 64.52608 37943 ft 436 kts 305°
2026-05-04 14:00 36.08016 64.43575 37940 ft 436 kts 305°
2026-05-04 14:00 36.13381 64.34541 37934 ft 435 kts 305°
2026-05-04 14:01 36.16967 64.28490 37935 ft 435 kts 305°
2026-05-04 14:02 36.22484 64.19624 37933 ft 435 kts 307°
2026-05-04 14:02 36.26232 64.13712 37935 ft 436 kts 307°
2026-05-04 14:03 36.29963 64.07773 37933 ft 436 kts 306°
2026-05-04 14:03 36.33655 64.01858 37939 ft 436 kts 306°
2026-05-04 14:04 36.39211 63.92928 37937 ft 435 kts 306°
2026-05-04 14:04 36.42911 63.86970 37940 ft 435 kts 306°
2026-05-04 14:05 36.48444 63.78041 37940 ft 436 kts 306°
2026-05-04 14:06 36.52150 63.72049 37943 ft 436 kts 306°
2026-05-04 14:06 36.55821 63.66103 37936 ft 435 kts 306°
2026-05-04 14:07 36.59516 63.60106 37939 ft 436 kts 306°
2026-05-04 14:07 36.63186 63.54139 37936 ft 436 kts 306°
2026-05-04 14:08 36.66875 63.48132 37938 ft 436 kts 306°
2026-05-04 14:08 36.70551 63.42135 37942 ft 436 kts 306°
2026-05-04 14:09 36.76045 63.33152 37933 ft 436 kts 305°
2026-05-04 14:10 36.80944 63.25120 37932 ft 436 kts 305°
2026-05-04 14:10 36.85214 63.18106 37934 ft 436 kts 305°
2026-05-04 14:11 36.88271 63.13075 37930 ft 436 kts 305°
2026-05-04 14:11 36.93770 63.04006 37927 ft 436 kts 305°
2026-05-04 14:12 36.97413 62.97985 37927 ft 436 kts 305°
2026-05-04 14:13 37.02893 62.88908 37929 ft 436 kts 305°
2026-05-04 14:13 37.06534 62.82860 37927 ft 437 kts 305°
2026-05-04 14:14 37.10200 62.76761 37926 ft 436 kts 304°
2026-05-04 14:14 37.15651 62.67672 37926 ft 436 kts 304°
2026-05-04 14:15 37.22923 62.55510 37924 ft 437 kts 304°
2026-05-04 14:16 37.28387 62.46342 37922 ft 436 kts 304°
2026-05-04 14:17 37.33819 62.37204 37925 ft 436 kts 304°
2026-05-04 14:18 37.39251 62.28040 37927 ft 436 kts 304°
2026-05-04 14:19 37.46501 62.15770 37929 ft 436 kts 304°
2026-05-04 14:19 37.50114 62.09637 37918 ft 436 kts 304°
2026-05-04 14:20 37.53705 62.03530 37912 ft 436 kts 304°
2026-05-04 14:20 37.57321 61.97371 37912 ft 436 kts 304°
2026-05-04 14:21 37.62215 61.87753 37911 ft 433 kts 292°
2026-05-04 14:21 37.64165 61.80625 37924 ft 433 kts 287°
2026-05-04 14:22 37.65868 61.73319 37922 ft 433 kts 285°
2026-05-04 14:22 37.67531 61.65991 37919 ft 433 kts 285°
2026-05-04 14:23 37.70035 61.55053 37914 ft 433 kts 285°
2026-05-04 14:24 37.71719 61.47729 37919 ft 433 kts 285°
2026-05-04 14:24 37.73388 61.40451 37909 ft 434 kts 285°
2026-05-04 14:25 37.75069 61.33093 37900 ft 434 kts 285°
2026-05-04 14:25 37.77571 61.22100 37903 ft 434 kts 285°
2026-05-04 14:26 37.79227 61.14790 37900 ft 434 kts 285°
2026-05-04 14:26 37.80895 61.07408 37898 ft 435 kts 285°
2026-05-04 14:27 37.82543 61.00090 37893 ft 435 kts 285°
2026-05-04 14:27 37.84193 60.92739 37893 ft 435 kts 285°
2026-05-04 14:28 37.85844 60.85361 37889 ft 435 kts 285°
2026-05-04 14:28 37.87491 60.77975 37890 ft 435 kts 285°
2026-05-04 14:29 37.90757 60.63257 37892 ft 435 kts 285°
2026-05-04 14:30 37.92394 60.55846 37884 ft 436 kts 285°
2026-05-04 14:31 37.94826 60.44789 37874 ft 436 kts 284°
2026-05-04 14:32 37.98072 60.29948 37876 ft 436 kts 284°
2026-05-04 14:32 37.99677 60.22573 37883 ft 436 kts 284°
2026-05-04 14:33 38.01291 60.15136 37868 ft 437 kts 284°
2026-05-04 14:33 38.02888 60.07732 37867 ft 436 kts 284°
2026-05-04 14:34 38.04484 60.00289 37866 ft 436 kts 284°
2026-05-04 14:34 38.06067 59.92889 37861 ft 436 kts 284°
2026-05-04 14:35 38.07651 59.85464 37859 ft 436 kts 284°
2026-05-04 14:35 38.09233 59.78026 37857 ft 434 kts 284°
2026-05-04 14:36 38.10801 59.70631 37855 ft 435 kts 284°
2026-05-04 14:36 38.12364 59.63230 37853 ft 435 kts 284°
2026-05-04 14:37 38.13928 59.55798 37848 ft 434 kts 284°
2026-05-04 14:37 38.15484 59.48382 37846 ft 433 kts 284°
2026-05-04 14:38 38.17032 59.40979 37842 ft 433 kts 284°
2026-05-04 14:38 38.18568 59.33606 37840 ft 434 kts 284°
2026-05-04 14:39 38.20110 59.26183 37843 ft 433 kts 283°
2026-05-04 14:39 38.21633 59.18820 37834 ft 432 kts 283°
2026-05-04 14:40 38.23922 59.07711 37834 ft 432 kts 283°
2026-05-04 14:40 38.25431 59.00353 37823 ft 432 kts 283°
2026-05-04 14:41 38.26944 58.92953 37832 ft 432 kts 283°
2026-05-04 14:42 38.29959 58.78131 37829 ft 433 kts 283°
2026-05-04 14:42 38.31453 58.70742 37829 ft 433 kts 283°
2026-05-04 14:43 38.32952 58.63309 37826 ft 433 kts 283°
2026-05-04 14:43 38.34445 58.55877 37826 ft 433 kts 283°
2026-05-04 14:44 38.35931 58.48450 37826 ft 435 kts 283°
2026-05-04 14:44 38.37421 58.40979 37825 ft 433 kts 283°
2026-05-04 14:45 38.38900 58.33538 37820 ft 432 kts 283°
2026-05-04 14:45 38.40711 58.26278 37824 ft 434 kts 290°
2026-05-04 14:46 38.43116 58.19213 37832 ft 434 kts 291°
2026-05-04 14:46 38.45609 58.12194 37815 ft 433 kts 292°
2026-05-04 14:47 38.48083 58.05242 37815 ft 433 kts 292°
2026-05-04 14:47 38.50569 57.98209 37818 ft 433 kts 291°
2026-05-04 14:48 38.53024 57.91227 37805 ft 433 kts 291°
2026-05-04 14:48 38.55490 57.84191 37815 ft 432 kts 291°
2026-05-04 14:49 38.57925 57.77228 37815 ft 432 kts 291°
2026-05-04 14:49 38.60373 57.70212 37818 ft 432 kts 291°
2026-05-04 14:50 38.62339 57.62988 37813 ft 429 kts 284°
2026-05-04 14:50 38.63854 57.55566 37824 ft 432 kts 283°
2026-05-04 14:51 38.65298 57.48098 37823 ft 432 kts 282°
2026-05-04 14:51 38.66736 57.40615 37818 ft 432 kts 282°
2026-05-04 14:52 38.68170 57.33175 37826 ft 433 kts 282°
2026-05-04 14:52 38.69615 57.25677 37827 ft 433 kts 282°
2026-05-04 14:53 38.71046 57.18228 37836 ft 433 kts 282°
2026-05-04 14:53 38.72483 57.10720 37812 ft 433 kts 282°
2026-05-04 14:54 38.73903 57.03276 37831 ft 432 kts 282°
2026-05-04 14:54 38.75325 56.95785 37824 ft 432 kts 282°
2026-05-04 14:55 38.76743 56.88293 37829 ft 432 kts 282°
2026-05-04 14:55 38.78148 56.80840 37838 ft 432 kts 282°
2026-05-04 14:56 38.79559 56.73328 37829 ft 432 kts 282°
2026-05-04 14:56 38.80955 56.65865 37823 ft 432 kts 282°
2026-05-04 14:57 38.82356 56.58346 37826 ft 432 kts 282°
2026-05-04 14:57 38.83742 56.50882 37823 ft 432 kts 282°
2026-05-04 14:58 38.85134 56.43357 37844 ft 432 kts 281°
2026-05-04 14:58 38.86285 56.37108 37822 ft 433 kts 282°
2026-05-04 14:59 38.87660 56.29624 37817 ft 433 kts 281°
2026-05-04 15:00 38.89726 56.18318 37824 ft 433 kts 281°
2026-05-04 15:00 38.91088 56.10827 37824 ft 432 kts 281°
2026-05-04 15:01 38.93131 55.99535 37819 ft 432 kts 281°
2026-05-04 15:01 38.94482 55.92036 37827 ft 432 kts 281°
2026-05-04 15:02 38.95834 55.84500 37825 ft 432 kts 281°
2026-05-04 15:02 38.97175 55.76990 37831 ft 432 kts 281°
2026-05-04 15:03 38.98515 55.69464 37824 ft 430 kts 281°
2026-05-04 15:03 38.99837 55.62006 37826 ft 430 kts 281°
2026-05-04 15:04 39.01163 55.54496 37825 ft 430 kts 281°
2026-05-04 15:04 39.02478 55.47033 37820 ft 428 kts 280°
2026-05-04 15:05 39.03794 55.39538 37822 ft 427 kts 280°
2026-05-04 15:05 39.05093 55.32111 37815 ft 427 kts 280°
2026-05-04 15:06 39.06394 55.24644 37820 ft 428 kts 280°
2026-05-04 15:07 39.08327 55.13486 37813 ft 427 kts 280°
2026-05-04 15:07 39.09616 55.06013 37800 ft 427 kts 280°
2026-05-04 15:08 39.10898 54.98550 37797 ft 427 kts 279°
2026-05-04 15:08 39.12173 54.91096 37797 ft 428 kts 279°
2026-05-04 15:09 39.13449 54.83606 37806 ft 428 kts 279°
2026-05-04 15:09 39.14721 54.76108 37804 ft 427 kts 279°
2026-05-04 15:10 39.16620 54.64853 37795 ft 429 kts 279°
2026-05-04 15:11 39.18511 54.53590 37793 ft 430 kts 279°
2026-05-04 15:11 39.19774 54.46031 37803 ft 430 kts 279°
2026-05-04 15:12 39.21016 54.38528 37809 ft 430 kts 279°
2026-05-04 15:12 39.22262 54.30972 37804 ft 430 kts 278°
2026-05-04 15:13 39.23499 54.23447 37794 ft 429 kts 278°
2026-05-04 15:13 39.24738 54.15887 37800 ft 429 kts 278°
2026-05-04 15:14 39.25962 54.08385 37798 ft 429 kts 278°
2026-05-04 15:14 39.27190 54.00825 37804 ft 429 kts 278°
2026-05-04 15:15 39.28413 53.93260 37808 ft 429 kts 278°
2026-05-04 15:15 39.29621 53.85758 37814 ft 429 kts 278°
2026-05-04 15:16 39.31440 53.74398 37811 ft 430 kts 278°
2026-05-04 15:17 39.33247 53.63038 37817 ft 430 kts 278°
2026-05-04 15:17 39.35040 53.51689 37818 ft 430 kts 278°
2026-05-04 15:18 39.36226 53.44145 37825 ft 430 kts 277°
2026-05-04 15:19 39.38007 53.32747 37826 ft 431 kts 277°
2026-05-04 15:19 39.39770 53.21388 37831 ft 431 kts 277°
2026-05-04 15:20 39.40944 53.13780 37830 ft 431 kts 277°
2026-05-04 15:20 39.42114 53.06168 37838 ft 431 kts 277°
2026-05-04 15:21 39.43273 52.98585 37841 ft 432 kts 277°
2026-05-04 15:22 39.45015 52.87132 37847 ft 432 kts 276°
2026-05-04 15:22 39.46740 52.75709 37842 ft 432 kts 276°
2026-05-04 15:23 39.47889 52.68052 37845 ft 433 kts 276°
2026-05-04 15:23 39.49029 52.60423 37844 ft 434 kts 276°
2026-05-04 15:24 39.51307 52.45068 37852 ft 434 kts 276°
2026-05-04 15:25 39.52432 52.37431 37882 ft 433 kts 276°
2026-05-04 15:26 39.54124 52.25875 37854 ft 435 kts 276°
2026-05-04 15:26 39.55799 52.14355 37853 ft 435 kts 276°
2026-05-04 15:27 39.57461 52.02835 37853 ft 435 kts 276°
2026-05-04 15:28 39.59123 51.91231 37854 ft 436 kts 276°
2026-05-04 15:29 39.60773 51.79628 37861 ft 437 kts 275°
2026-05-04 15:30 39.64596 51.52474 37853 ft 440 kts 276°
2026-05-04 15:31 39.67403 51.41027 37862 ft 446 kts 284°
2026-05-04 15:32 39.72739 51.22101 37865 ft 447 kts 284°
2026-05-04 15:34 39.78025 51.03099 37864 ft 448 kts 284°
2026-05-04 15:34 39.81189 50.91645 37864 ft 448 kts 284°
2026-05-04 15:35 39.84336 50.80208 37864 ft 449 kts 283°
2026-05-04 15:36 39.87482 50.68722 37865 ft 448 kts 283°
2026-05-04 15:36 39.89561 50.61104 37867 ft 448 kts 283°
2026-05-04 15:37 39.91647 50.53435 37867 ft 448 kts 283°
2026-05-04 15:37 39.93720 50.45793 37867 ft 449 kts 283°
2026-05-04 15:38 39.95800 50.38099 37874 ft 449 kts 283°
2026-05-04 15:38 39.97862 50.30448 37867 ft 449 kts 283°
2026-05-04 15:39 39.99931 50.22751 37866 ft 449 kts 283°
2026-05-04 15:40 40.03028 50.11183 37862 ft 449 kts 283°
2026-05-04 15:40 40.05074 50.03509 37859 ft 450 kts 283°
2026-05-04 15:41 40.07128 49.95785 37859 ft 450 kts 283°
2026-05-04 15:41 40.09177 49.88053 37867 ft 450 kts 283°
2026-05-04 15:42 40.11221 49.80318 37867 ft 450 kts 283°
2026-05-04 15:42 40.13251 49.72611 37870 ft 451 kts 283°
2026-05-04 15:43 40.15292 49.64836 37852 ft 452 kts 283°
2026-05-04 15:43 40.17336 49.57023 37835 ft 454 kts 283°
2026-05-04 15:44 40.19370 49.49235 37839 ft 455 kts 283°
2026-05-04 15:44 40.21421 49.41385 37855 ft 456 kts 283°
2026-05-04 15:45 40.23460 49.33557 37856 ft 456 kts 283°
2026-05-04 15:45 40.25501 49.25684 37871 ft 456 kts 283°
2026-05-04 15:46 40.27528 49.17789 37950 ft 456 kts 282°
2026-05-04 15:46 40.29506 49.09932 37893 ft 457 kts 282°
2026-05-04 15:47 40.31458 49.01976 37895 ft 458 kts 282°
2026-05-04 15:47 40.33379 48.94071 37988 ft 457 kts 281°
2026-05-04 15:48 40.35285 48.86118 38021 ft 457 kts 281°
2026-05-04 15:48 40.37823 48.75495 37886 ft 460 kts 281°
2026-05-04 15:49 40.40062 48.66178 37950 ft 459 kts 281°
2026-05-04 15:49 40.41658 48.59535 38041 ft 458 kts 281°
2026-05-04 15:50 40.43564 48.51526 38015 ft 460 kts 281°
2026-05-04 15:50 40.44510 48.47495 37911 ft 462 kts 281°
2026-05-04 15:50 40.45434 48.43502 37837 ft 463 kts 281°
2026-05-04 15:51 40.47273 48.35386 37892 ft 461 kts 280°
2026-05-04 15:51 40.49048 48.27344 38038 ft 458 kts 280°
2026-05-04 15:52 40.50777 48.19265 37996 ft 460 kts 279°
2026-05-04 15:52 40.52455 48.11112 37821 ft 463 kts 279°
2026-05-04 15:53 40.54068 48.02976 37880 ft 461 kts 278°
2026-05-04 15:53 40.55638 47.94810 38022 ft 458 kts 278°
2026-05-04 15:54 40.57140 47.86704 37980 ft 460 kts 277°
2026-05-04 15:54 40.58600 47.78468 37824 ft 463 kts 277°
2026-05-04 15:55 40.60003 47.70205 37887 ft 461 kts 276°
2026-05-04 15:55 40.61340 47.62026 38003 ft 458 kts 276°
2026-05-04 15:56 40.62629 47.53789 37959 ft 460 kts 276°
2026-05-04 15:56 40.63859 47.45522 37817 ft 462 kts 275°
2026-05-04 15:57 40.65046 47.37215 37874 ft 461 kts 275°
2026-05-04 15:57 40.66197 47.28929 37974 ft 459 kts 275°
2026-05-04 15:58 40.67312 47.20683 37916 ft 460 kts 274°
2026-05-04 15:58 40.68405 47.12353 37862 ft 462 kts 274°
2026-05-04 15:59 40.69475 47.03967 37845 ft 462 kts 274°
2026-05-04 15:59 40.70508 46.95673 37924 ft 460 kts 274°
2026-05-04 16:00 40.71522 46.87318 37902 ft 460 kts 273°
2026-05-04 16:00 40.72511 46.79016 37877 ft 461 kts 273°
2026-05-04 16:01 40.73504 46.70614 37847 ft 463 kts 274°
2026-05-04 16:01 40.74498 46.62222 37835 ft 463 kts 274°
2026-05-04 16:02 40.75497 46.53887 37865 ft 462 kts 274°
2026-05-04 16:03 40.77038 46.41299 37859 ft 463 kts 274°
2026-05-04 16:03 40.78085 46.32924 37756 ft 467 kts 274°
2026-05-04 16:04 40.79159 46.24431 37645 ft 470 kts 274°
2026-05-04 16:04 40.80258 46.15942 37816 ft 466 kts 274°
2026-05-04 16:04 40.80817 46.11727 37909 ft 465 kts 274°
2026-05-04 16:05 40.81951 46.03354 37886 ft 467 kts 275°
2026-05-04 16:05 40.83120 45.94859 37685 ft 471 kts 275°
2026-05-04 16:06 40.83716 45.90583 37673 ft 471 kts 275°
2026-05-04 16:06 40.85333 45.79337 37885 ft 467 kts 275°
2026-05-04 16:07 40.86203 45.73698 37887 ft 468 kts 276°
2026-05-04 16:07 40.88293 45.61045 37714 ft 474 kts 277°
2026-05-04 16:08 40.89022 45.56800 37716 ft 474 kts 277°
2026-05-04 16:08 40.91246 45.44142 37886 ft 471 kts 277°
2026-05-04 16:09 40.92689 45.35652 37829 ft 472 kts 277°
2026-05-04 16:09 40.94081 45.27180 37715 ft 474 kts 276°
2026-05-04 16:10 40.95458 45.18633 37666 ft 475 kts 276°
2026-05-04 16:11 40.97674 45.05924 37815 ft 473 kts 278°
2026-05-04 16:11 40.98481 45.01680 37814 ft 474 kts 278°
2026-05-04 16:12 41.01106 44.88913 37469 ft 483 kts 280°
2026-05-04 16:12 41.03993 44.76214 37688 ft 479 kts 281°
2026-05-04 16:13 41.08056 44.59418 37549 ft 483 kts 282°
2026-05-04 16:14 41.12472 44.42582 37690 ft 482 kts 284°
2026-05-04 16:15 41.16112 44.30085 37579 ft 487 kts 286°
2026-05-04 16:16 41.18723 44.21761 37388 ft 492 kts 287°
2026-05-04 16:16 41.22867 44.09327 37678 ft 487 kts 288°
2026-05-04 16:17 41.25729 44.01127 37635 ft 489 kts 289°
2026-05-04 16:18 41.30132 43.88779 37390 ft 495 kts 290°
2026-05-04 16:18 41.31616 43.84708 37441 ft 495 kts 290°
2026-05-04 16:19 41.36201 43.72413 37590 ft 493 kts 291°
2026-05-04 16:19 41.39289 43.64252 37395 ft 498 kts 291°
2026-05-04 16:20 41.47013 43.43681 37598 ft 495 kts 290°